Find Kosmos-2239

NORAD ID: 22590 Int'l Des: 1993-020 Owner: VMFR Country: RU operational
LEOCIRCULARPOLAR

Live-Position

3D-Globus wird geladen...

Über Kosmos-2239

Beschreibung wird geladen...

Nächste Überflüge

Passes for default location (London). Set your location on the main map for personalized predictions.

Höhenverlauf

Loading altitude history...

Zweizeiliger Elementsatz

1 22590U 93020A 26105.28090417 .00000050 00000-0 35721-4 0 9994
2 22590 82.9346 187.4671 0024467 108.4195 319.2502 13.75630517658130
Epoch: 15. Apr. 2026 • Age: 5 hours

Aktueller Status

Höhe 1025.2 km
Geschwindigkeit 7.33 km/s
Subsatellitenpunkt -79.69°S, 132.28°E
Startdatum 1. Apr. 1993
Alter 33 years
Typ other

Technische Details

Klassifizierung Payload
Masse 800.00 kg
Trockenmasse 800.00 kg
Gesamtmasse 800.00 kg
Länge 5.00 m
Durchmesser 2.10 m
Spannweite 17.00 m
Form Cyl + Ant
Hersteller POL
Bus-Typ KAUR-1 11F627
Phasenstatus In Orbit
Besitzer/Staat VMFR/RU

Most Searched